Temp
50 50 51 50 49 50 48 47 48 50 50 51 53 57 57 58 58 58 57 56 55 55
49 49 48 45 46 45 47 48 49 49 49 51 53 57 58 58 58 58 57 57 56 56
48 48 49 45 44 46 46 47 47 48 49 51 55 59 60 59 58 57 57 57 56 56
46 47 46 44 45 46 45 46 46 47 49 54 59 60 60 58 58 56 56 56 56 55
45 46 47 45 45 44 44 45 46 47 51 57 60 59 59 56 56 55 55 55 55 55
43 44 46 45 43 43 44 45 45 47 50 54 55 56 56 55 54 54 54 55 54 54
42 44 44 44 42 43 43 43 44 45 47 49 50 51 50 50 48 47 47 49 51 52
43 44 43 42 42 42 43 43 44 45 45 46 46 47 47 47 46 45 44 44 44 46
43 42 40 40 41 41 42 43 43 43 43 42 42 41 42 45 45 44 44 42 41 42
39 38 38 38 40 40 40 42 42 43 41 40 40 40 40 40 43 43 42 41 40 39
41 37 36 35 39 39 40 40 42 42 42 41 40 41 40 39 40 39 39 38 39 40
40 37 36 36 36 37 38 39 38 40 42 42 40 40 41 42 40 38 36 37 37 39
38 38 37 36 35 35 35 35 36 36 38 35 39 39 40 41 37 37 35 36 36 36
39 38 38 36 36 36 36 35 35 35 35 35 36 39 40 41 38 35 35 34 34 34
MSLP
1015.44 1015.29 1015.10 1014.99 1014.98 1014.72 1014.67 1014.61 1014.32 1013.94 1013.84 1013.72 1013.47 1013.48 1013.57 1013.86 1014.27 1014.73 1015.51 1016.14 1016.62 1017.18
1015.63 1015.47 1015.37 1015.40 1015.21 1015.14 1014.85 1014.59 1014.21 1013.87 1013.65 1013.44 1013.33 1013.20 1013.42 1013.74 1014.16 1014.86 1015.41 1015.87 1016.59 1016.98
1015.77 1015.54 1015.35 1015.58 1015.36 1015.11 1014.72 1014.32 1013.97 1013.48 1013.13 1012.96 1012.89 1012.97 1013.18 1013.69 1014.24 1014.67 1015.28 1015.72 1016.34 1016.96
1015.93 1015.75 1015.68 1015.72 1015.30 1014.88 1014.63 1014.15 1013.61 1013.08 1012.63 1012.31 1012.17 1012.70 1013.20 1013.59 1014.18 1014.70 1015.29 1015.71 1016.17 1016.84
1016.16 1015.99 1015.71 1015.61 1015.29 1014.95 1014.56 1014.01 1013.34 1012.80 1012.33 1012.12 1012.44 1012.89 1013.35 1013.91 1014.36 1014.85 1015.29 1015.75 1016.30 1016.77
1016.33 1016.20 1015.80 1015.80 1015.46 1014.89 1014.50 1014.05 1013.55 1012.99 1012.56 1012.60 1013.01 1013.35 1013.95 1014.39 1014.72 1014.96 1015.46 1016.06 1016.45 1016.89
1016.71 1016.32 1016.10 1015.80 1015.59 1015.32 1014.88 1014.43 1013.96 1013.46 1013.37 1013.33 1013.57 1013.93 1014.27 1014.74 1015.32 1015.78 1016.14 1016.33 1016.69 1017.14
1017.09 1016.78 1016.48 1016.29 1016.07 1015.77 1015.35 1014.90 1014.39 1014.18 1014.05 1014.21 1014.40 1014.72 1015.10 1015.52 1016.02 1016.38 1016.82 1017.26 1017.53 1017.81
1017.35 1017.36 1017.14 1016.74 1016.52 1016.12 1015.99 1015.71 1015.23 1015.38 1015.39 1015.64 1015.99 1015.97 1015.95 1016.18 1016.77 1017.21 1017.66 1018.27 1018.41 1018.66
1017.66 1017.80 1017.72 1017.52 1017.29 1016.96 1016.72 1016.50 1016.44 1016.45 1016.63 1016.99 1017.29 1017.17 1017.19 1017.43 1017.82 1018.22 1018.68 1019.03 1019.38 1019.74
1017.72 1018.01 1018.15 1018.08 1017.93 1017.80 1017.67 1017.53 1017.47 1017.51 1017.66 1017.96 1018.36 1018.45 1018.38 1018.61 1018.93 1019.32 1019.70 1020.07 1020.20 1020.47
1017.74 1018.17 1018.43 1018.43 1018.50 1018.48 1018.32 1018.30 1018.59 1018.71 1018.81 1019.02 1019.34 1019.32 1019.14 1019.30 1019.68 1019.99 1020.59 1020.95 1020.95 1021.05
1017.87 1018.28 1018.66 1018.83 1019.00 1019.12 1019.15 1019.27 1019.48 1019.69 1019.84 1019.90 1019.93 1019.90 1019.73 1019.61 1020.14 1020.77 1021.20 1021.54 1021.67 1021.72
1017.99 1018.26 1018.68 1019.11 1019.35 1019.54 1019.64 1019.72 1019.91 1019.99 1020.13 1020.18 1020.40 1020.50 1020.29 1020.47 1020.84 1021.34 1021.68 1022.11 1022.41 1022.59
Wind_Speed
5 4 5 7 6 5 4 5 5 6 5 6 7 7 5 5 6 10 8 10 6 4
4 5 5 4 6 4 6 5 7 7 6 6 8 8 8 7 8 9 8 9 8 5
5 5 5 4 6 7 7 7 7 7 6 6 8 9 9 7 8 8 6 6 9 5
5 6 4 4 6 7 7 7 7 6 5 4 9 10 8 7 8 8 7 8 9 8
4 6 5 4 6 6 7 6 6 5 1 3 7 7 7 7 7 8 8 8 9 7
5 5 6 6 7 7 7 7 6 4 5 6 6 7 7 6 6 5 6 6 6 6
5 6 7 7 7 7 7 7 6 6 7 7 8 7 7 8 7 7 6 6 6 6
4 5 7 7 7 6 6 6 7 8 10 10 8 5 8 8 8 8 8 7 6 5
5 5 5 6 7 8 8 8 9 11 11 12 8 12 12 9 8 6 8 7 7 7
5 5 5 5 6 8 9 9 12 12 12 13 12 18 17 13 8 8 8 7 6 6
5 5 5 5 6 7 6 9 9 10 11 11 11 16 18 15 11 10 10 9 7 7
4 5 5 6 6 5 7 8 8 7 10 9 10 12 12 11 8 9 8 6 6 7
6 5 5 5 5 3 5 6 5 7 7 6 8 12 12 9 4 6 4 5 6 11
4 6 6 4 3 4 5 5 5 6 6 8 7 8 13 11 5 3 4 3 3 3
Wind_Direction
324 322 320 339 328 326 321 303 298 282 283 256 233 211 199 186 164 157 161 163 163 151
336 323 313 338 311 297 291 287 291 286 275 250 220 197 186 185 154 162 162 166 160 153
342 323 312 351 313 308 299 291 286 279 258 229 205 193 176 153 150 155 158 156 162 153
352 330 346 312 305 302 316 294 289 291 271 218 184 160 157 146 147 149 154 159 164 172
351 332 327 310 325 314 304 309 317 308 269 160 139 134 136 136 145 149 148 155 154 157
3 351 341 347 330 327 334 336 338 5 58 91 101 104 115 126 121 120 131 143 140 143
20 355 345 347 344 344 341 345 5 37 63 69 80 81 83 87 83 81 74 78 95 115
51 14 3 354 348 352 4 14 22 54 58 58 56 72 97 93 94 97 86 69 67 73
72 56 13 7 10 10 20 27 45 50 57 56 49 47 71 95 92 83 88 89 71 57
76 65 47 35 41 30 32 44 47 53 55 55 49 48 54 58 74 80 71 68 69 66
100 84 66 48 59 53 48 53 57 61 61 61 49 54 64 61 67 64 61 52 53 63
105 92 79 74 61 43 59 59 61 54 64 68 58 54 79 86 76 75 67 59 52 81
126 116 96 89 74 58 70 79 70 65 61 70 77 52 63 74 71 80 77 57 53 58
122 119 113 100 79 79 74 81 81 89 63 58 42 48 52 54 68 82 84 71 55 39